Location: Göttingen
(51.5413°N, 9.9158°E)
Time: 02:00:43
(UTC+02:00)

Transit 4A - All Passes

Search period start: 29 May 2022 00:00
Search period end: 08 June 2022 00:00
Orbit: 863 x 981 km, 66.8° (Epoch: 28 May)

Date Brightness Start Highest point End Pass type
(mag) Time Alt. Az. Time Alt. Az. Time Alt. Az.
29 May - 02:44:44 10° SE 02:47:24 13° E 02:50:03 10° ENE visible
29 May - 04:26:15 10° SSW 04:32:32 60° ESE 04:38:49 10° NE visible
29 May - 06:13:08 10° WSW 06:19:13 43° NW 06:25:17 10° NNE daylight
29 May - 08:02:26 10° WNW 08:07:18 22° NNW 08:12:06 10° NE daylight
29 May - 09:51:01 10° NW 09:55:57 23° NNE 10:00:48 10° ENE daylight
29 May - 11:37:47 10° NW 11:43:54 47° NE 11:49:51 10° ESE daylight
29 May - 13:24:21 10° NW 13:30:22 49° WSW 13:36:12 10° S daylight
30 May - 02:52:03 10° SE 02:56:17 19° ESE 03:00:31 10° ENE visible
30 May - 04:35:20 10° SSW 04:41:44 79° SE 04:48:10 10° NE daylight
30 May - 06:22:55 10° W 06:28:45 35° NNW 06:34:34 10° NNE daylight
30 May - 08:12:22 10° NW 08:17:04 21° N 08:21:42 10° NE daylight
30 May - 10:00:29 10° NW 10:05:40 25° NNE 10:10:45 10° ENE daylight
30 May - 11:47:03 10° NW 11:53:21 60° NE 11:59:25 10° SE daylight
30 May - 13:33:51 10° NW 13:39:28 36° WSW 13:44:55 10° S daylight
31 May - 03:00:05 10° SSE 03:05:14 26° ESE 03:10:23 10° NE visible
31 May - 04:44:36 10° SW 04:51:02 80° NW 04:57:29 10° NE daylight
31 May - 06:32:49 10° W 06:38:22 30° NNW 06:43:54 10° NNE daylight
31 May - 08:22:13 10° NW 08:26:50 20° N 08:31:24 10° NE daylight
31 May - 10:09:53 10° NNW 10:15:20 29° NNE 10:20:40 10° E daylight
31 May - 11:56:21 10° NW 12:02:43 78° NE 12:08:49 10° SE daylight
31 May - 13:43:28 10° NW 13:48:28 26° WSW 13:53:21 10° SSW daylight
01 Jun - 03:08:31 10° S 03:14:15 36° ESE 03:20:01 10° NE visible
01 Jun - 04:54:02 10° SW 05:00:23 62° NW 05:06:46 10° NE daylight
01 Jun - 06:42:45 10° WNW 06:48:02 26° NNW 06:53:16 10° NNE daylight
01 Jun - 08:31:58 10° NW 08:36:37 20° N 08:41:12 10° NE daylight
01 Jun - 10:19:13 10° NNW 10:24:58 34° NNE 10:30:32 10° E daylight
01 Jun - 12:05:40 10° NW 12:11:59 81° SW 12:18:06 10° SSE daylight
01 Jun - 13:53:22 10° WNW 13:57:24 18° WSW 14:01:23 10° SW daylight
02 Jun - 03:17:14 10° S 03:23:21 49° ESE 03:29:29 10° NE visible
02 Jun - 05:03:37 10° WSW 05:09:50 49° NW 05:16:02 10° NE daylight
02 Jun - 06:52:44 10° WNW 06:57:44 23° NNW 07:02:42 10° NE daylight
02 Jun - 08:41:36 10° NW 08:46:23 21° N 08:51:06 10° ENE daylight
02 Jun - 10:28:31 10° NNW 10:34:30 41° NE 10:40:18 10° ESE daylight
02 Jun - 12:15:01 10° NW 12:21:13 60° WSW 12:27:10 10° SSE daylight
02 Jun - 14:03:56 10° WNW 14:06:16 12° W 14:08:36 10° WSW daylight
03 Jun - 01:43:57 10° SE 01:47:17 15° ESE 01:50:36 10° ENE visible
03 Jun - 03:26:11 10° SSW 03:32:31 66° ESE 03:38:52 10° NE visible
03 Jun - 05:13:20 10° WSW 05:19:20 40° NW 05:25:18 10° NNE daylight
03 Jun - 07:02:42 10° WNW 07:07:29 21° N 07:12:13 10° NE daylight
03 Jun - 08:51:08 10° NW 08:56:08 23° NNE 09:01:02 10° ENE daylight
03 Jun - 10:37:49 10° NW 10:43:59 51° NE 10:49:58 10° ESE daylight
03 Jun - 12:24:27 10° NW 12:30:20 44° WSW 12:36:02 10° S daylight
04 Jun - 01:51:34 10° SSE 01:56:11 21° ESE 02:00:47 10° ENE visible
04 Jun - 03:35:20 10° SW 03:41:46 87° SE 03:48:12 10° NE visible
04 Jun - 05:23:09 10° W 05:28:54 33° NNW 05:34:37 10° NNE daylight
04 Jun - 07:12:37 10° NW 07:17:16 20° N 07:21:51 10° NE daylight
04 Jun - 09:00:34 10° NNW 09:05:50 26° NNE 09:10:59 10° ENE daylight
04 Jun - 10:47:06 10° NW 10:53:23 66° NE 10:59:29 10° SE daylight
04 Jun - 12:33:58 10° NW 12:39:24 32° WSW 12:44:40 10° S daylight
05 Jun - 01:59:47 10° SSE 02:05:09 29° ESE 02:10:33 10° NE visible
05 Jun - 03:44:39 10° SW 03:51:05 73° NW 03:57:30 10° NE visible
05 Jun - 05:33:05 10° W 05:38:31 28° NNW 05:43:56 10° NNE daylight
05 Jun - 07:22:26 10° NW 07:27:02 20° N 07:31:34 10° NE daylight
05 Jun - 09:09:56 10° NNW 09:15:29 30° NNE 09:20:52 10° E daylight
05 Jun - 10:56:24 10° NW 11:02:44 85° NE 11:08:50 10° SE daylight
05 Jun - 12:43:41 10° WNW 12:48:23 23° WSW 12:52:58 10° SSW daylight
06 Jun - 02:08:19 10° S 02:14:12 40° ESE 02:20:07 10° NE visible
06 Jun - 03:54:09 10° WSW 04:00:28 57° NW 04:06:47 10° NE visible
06 Jun - 05:43:02 10° WNW 05:48:12 25° NNW 05:53:19 10° NE daylight
06 Jun - 07:32:08 10° NW 07:36:48 21° N 07:41:25 10° NE daylight
06 Jun - 09:19:16 10° NNW 09:25:04 36° NNE 09:30:43 10° E daylight
06 Jun - 11:05:43 10° NW 11:12:00 73° WSW 11:18:03 10° SSE daylight
06 Jun - 12:53:44 10° WNW 12:57:17 16° WSW 13:00:47 10° SW daylight
07 Jun - 00:36:30 10° ESE 00:38:19 11° E 00:40:07 10° E visible
07 Jun - 02:17:07 10° SSW 02:23:20 55° ESE 02:29:33 10° NE visible
07 Jun - 04:03:47 10° WSW 04:09:55 45° NW 04:16:03 10° NNE visible
07 Jun - 05:53:01 10° WNW 05:57:55 22° NNW 06:02:47 10° NE daylight
07 Jun - 07:41:44 10° NW 07:46:35 22° NNE 07:51:19 10° ENE daylight
07 Jun - 09:28:34 10° NNW 09:34:36 44° NE 09:40:27 10° ESE daylight
07 Jun - 11:15:06 10° NW 11:21:10 54° WSW 11:27:03 10° SSE daylight
07 Jun - 13:05:06 10° W 13:06:07 10° W 13:07:09 10° WSW daylight
